星链-1417 (STARLINK-1417 )

导读

STARLINK-1417是美国SpaceX公司星链(Starlink)星座中的卫星,于美国东部时间2020年6月4日发射入轨,属于星链一期低轨互联网星座组网卫星。星链旨在搭建全球覆盖的卫星互联网通信系统,为全球用户提供宽带接入服务。该卫星运行在近地轨道,承担信号转发和通信组网功能,是星链大规模星座建设中较早发射的组网卫星之一,助力星链逐步实现全球通信覆盖目标。

Basic Information
目录编号:
45693
目录名称:
STARLINK-1417
国际标识:
2020-035AN
轨道中心:
EARTH
卫星名称:
星链-1417
卫星全名:
星链-1417 (STARLINK-1417 )
卫星状态:
在轨 (已飞行2283 天)
发射日期:
2020-06-04 UTC
国别 :
美国 (US)
星等 :
--
Orbit Information
数据来源 国际轨道数据 AOE轨道数据
星历时间 2026-09-04T02:40:23+0800
19小时前
查看轨道信息
2026-09-03T19:00:00+0800
1天前
查看轨道信息
半长轴 6881.9km 6881.966km
偏心率 0.0003878 0.0004798
轨道倾角 53.051° 53.049°
近地点辐角 59.163° 43.489°
升交点赤经 321.925° 323.395°
平近点角 300.975° 5.411°
近地点 501.094km 500.527km
远地点 506.432km 507.131km
周期 94.694分钟 94.695分钟
每日圈数 15.206886 15.206668
Detailed Information
固有亮度:
5
最大亮度:
2.5
卫星平台:
Starlink V1.0
覆盖范围:
全球
运营商:
太空探索技术公司
运营商所在国:
美国
制造商(研发单位):
太空探索技术公司
制造商所在国:
美国
使用方式:
暂无
Satellite Introduction
星链(Starlink)计划是由太空探索技术公司(SpaceX)提出的一个巨型低轨卫星互联网星座项目,计划在2019年至2024年间在太空搭建由约1.2万颗卫星组成的“星链”网络,其中1584颗将部署在地球上空550千米处的近地轨道,并从2020年开始工作。该卫星仍在工作。
2D Orbit Map
3D Orbit Map
Orbit Altitude Analysis Chart
Orbit Inclination Analysis Chart
Orbit Comprehensive Analysis Chart
View Comprehensive Chart
Conjunction Data List
Event ID Objects TCA Miss Dist (km) Collision Risk Probability Collision Risk Index (CRI) Action
CDM_260904-134204-282504-569323
2026-09-04T
13:42:40+0000
1.756 km
极远距离
4.069331E-6 低风险 0.47
CDM_260903-125604-569306-435121
2026-09-03T
12:56:55+0000
1.376 km
极远距离
3.089122E-6 低风险 0.45
CDM_260903-112204-569306-435121
2026-09-03T
11:22:12+0000
1.416 km
极远距离
2.825918E-6 低风险 0.44
CDM_260906-015604-569306-673821
2026-09-06T
01:56:30+0000
2.473 km
极远距离
1.043554E-6 低风险 0.35